Date String (YYYY-MM-DD hh:mm:ss) UTC,Instrument flags,Ambient pressure (hPa),Sample flow (lpm),Bypass flow (lpm),Sample temperature (°C),Ambient temperature (°C),ASC tube jacket temperature (°C),LED temperature (°C),Box temperature (°C),Sample RH (%),Span deviation,Mass concentration (μg/m³),Mass concentration (μg/m³),Mass concentration (μg/m³)
DateTimeUTC,F1_M11,P_M11,Q1_M11,Q2_M11,T1_M11,T2_M11,T3_M11,T4_M11,T5_M11,U1_M11,ZSPAN_M11,X2_M11,X0_M11,X1_M11
2023-02-18 05:00:00,,0825.6,4.99,0.00,22.0,20.1,00.0,31.1,23.7,06.7,0000.0,0000.70,0001.66,0000.53
2023-02-18 05:01:00,,0825.6,4.99,0.00,22.0,20.1,00.0,31.1,23.7,06.7,0000.0,0000.73,0001.73,0000.54
2023-02-18 05:02:00,,0825.5,5.00,0.00,22.0,20.1,00.0,31.1,23.6,06.6,0000.0,0000.72,0001.66,0000.53
2023-02-18 05:03:00,,0825.6,4.99,0.00,22.0,20.1,00.0,31.0,23.6,06.9,0000.0,0000.71,0001.59,0000.54
2023-02-18 05:04:00,,0825.6,5.00,0.00,21.9,20.1,00.0,31.0,23.5,06.9,0000.0,0000.71,0001.59,0000.54
2023-02-18 05:05:00,,0825.6,4.99,0.00,21.9,20.1,00.0,31.0,23.5,06.9,0000.0,0000.71,0001.66,0000.53
2023-02-18 05:06:00,,0825.5,5.02,0.00,21.9,20.1,00.0,31.0,23.5,06.9,0000.0,0000.71,0001.68,0000.53
2023-02-18 05:07:00,,0825.5,4.99,0.00,21.9,20.0,00.0,30.9,23.5,06.7,0000.0,0000.72,0001.70,0000.53
2023-02-18 05:08:00,,0825.5,4.97,0.00,21.8,20.0,00.0,30.9,23.5,06.5,0000.0,0000.72,0001.50,0000.53
2023-02-18 05:09:00,,0825.6,5.01,0.00,21.8,20.0,00.0,30.9,23.5,06.7,0000.0,0000.70,0001.11,0000.54
2023-02-18 05:10:00,,0825.5,5.02,0.00,21.8,20.0,00.0,30.9,23.4,06.9,0000.0,0000.71,0001.13,0000.55
2023-02-18 05:11:00,,0825.5,4.99,0.00,21.8,19.9,00.0,30.9,23.4,06.8,0000.0,0000.71,0001.11,0000.54
2023-02-18 05:12:00,,0825.6,4.96,0.00,21.7,19.9,00.0,30.8,23.4,06.9,0000.0,0000.69,0001.06,0000.55
2023-02-18 05:13:00,,0825.6,5.05,0.00,21.7,19.9,00.0,30.8,23.4,06.9,0000.0,0000.71,0001.13,0000.55
2023-02-18 05:14:00,,0825.6,5.00,0.00,21.7,19.8,00.0,30.8,23.3,07.0,0000.0,0000.71,0001.13,0000.55
2023-02-18 05:15:00,,0825.6,5.00,0.00,21.7,19.8,00.0,30.8,23.3,07.2,0000.0,0000.69,0001.12,0000.55
2023-02-18 05:16:00,,0825.6,5.02,0.00,21.7,19.7,00.0,30.8,23.3,07.2,0000.0,0000.73,0001.22,0000.55
2023-02-18 05:17:00,,0825.6,5.03,0.00,21.6,19.8,00.0,30.7,23.3,07.2,0000.0,0000.73,0001.22,0000.55
2023-02-18 05:18:00,,0825.6,4.97,0.00,21.6,19.7,00.0,30.7,23.2,07.0,0000.0,0000.72,0001.19,0000.55
2023-02-18 05:19:00,,0825.6,5.04,0.00,21.6,19.7,00.0,30.7,23.2,07.1,0000.0,0000.71,0001.16,0000.56
2023-02-18 05:20:00,,0825.6,5.00,0.00,21.6,19.7,00.0,30.7,23.2,07.1,0000.0,0000.70,0001.13,0000.55
2023-02-18 05:21:00,,0825.6,5.02,0.00,21.5,19.6,00.0,30.6,23.2,07.1,0000.0,0000.69,0001.11,0000.55
2023-02-18 05:22:00,,0825.6,4.99,0.00,21.5,19.6,00.0,30.6,23.2,07.0,0000.0,0000.69,0001.15,0000.55
2023-02-18 05:23:00,,0825.6,4.99,0.00,21.5,19.6,00.0,30.6,23.2,06.8,0000.0,0000.71,0001.27,0000.56
2023-02-18 05:24:00,,0825.6,5.01,0.00,21.5,19.6,00.0,30.6,23.1,06.6,0000.0,0000.72,0001.97,0000.57
2023-02-18 05:25:00,,0825.6,4.98,0.00,21.5,19.6,00.0,30.5,23.1,06.7,0000.0,0000.74,0002.02,0000.58
2023-02-18 05:26:00,,0825.6,5.00,0.00,21.4,19.6,00.0,30.5,23.1,06.9,0000.0,0000.79,0002.15,0000.58
2023-02-18 05:27:00,,0825.6,5.01,0.00,21.4,19.5,00.0,30.5,23.0,06.9,0000.0,0000.78,0002.09,0000.59
2023-02-18 05:28:00,,0825.5,5.00,0.00,21.4,19.5,00.0,30.5,23.0,07.0,0000.0,0000.76,0002.02,0000.59
2023-02-18 05:29:00,,0825.6,5.02,0.00,21.4,19.8,00.0,30.4,23.1,07.1,0000.0,0000.78,0002.06,0000.60
2023-02-18 05:30:00,,0825.6,4.98,0.00,21.5,20.9,00.0,30.3,23.4,07.0,0000.0,0000.79,0002.13,0000.60
2023-02-18 05:31:00,,0825.6,5.02,0.00,21.6,22.1,00.0,30.3,23.7,07.0,0000.0,0000.81,0002.21,0000.60
2023-02-18 05:32:00,,0825.5,5.02,0.00,21.8,22.5,00.0,30.4,23.9,06.8,0000.0,0000.84,0002.33,0000.60
2023-02-18 05:33:00,,0825.5,5.01,0.00,21.8,22.0,00.0,30.5,23.8,06.8,0000.0,0000.85,0002.39,0000.60
2023-02-18 05:34:00,,0825.5,5.00,0.00,21.8,21.4,00.0,30.5,23.6,07.0,0000.0,0000.85,0002.27,0000.61
2023-02-18 05:35:00,,0825.5,5.00,0.00,21.7,21.0,00.0,30.5,23.5,07.1,0000.0,0000.84,0001.73,0000.60
2023-02-18 05:36:00,,0825.5,4.99,0.00,21.7,20.7,00.0,30.6,23.4,07.1,0000.0,0000.83,0001.52,0000.60
2023-02-18 05:37:00,,0825.5,5.02,0.00,21.7,20.4,00.0,30.6,23.3,06.9,0000.0,0000.80,0001.44,0000.60
2023-02-18 05:38:00,,0825.5,5.01,0.00,21.6,20.2,00.0,30.6,23.3,07.1,0000.0,0000.79,0001.37,0000.60
2023-02-18 05:39:00,,0825.5,5.02,0.00,21.6,20.0,00.0,30.6,23.2,06.8,0000.0,0000.81,0001.40,0000.61
2023-02-18 05:40:00,,0825.5,5.01,0.00,21.6,19.9,00.0,30.6,23.2,06.9,0000.0,0000.80,0001.35,0000.61
2023-02-18 05:41:00,,0825.5,5.00,0.00,21.5,19.9,00.0,30.5,23.2,06.9,0000.0,0000.78,0001.24,0000.61
2023-02-18 05:42:00,,0825.5,4.98,0.00,21.5,19.8,00.0,30.5,23.1,06.9,0000.0,0000.80,0001.21,0000.64
2023-02-18 05:43:00,,0825.5,5.02,0.00,21.5,19.8,00.0,30.5,23.1,07.2,0000.0,0000.85,0001.23,0000.69
2023-02-18 05:44:00,,0825.5,5.01,0.00,21.4,19.7,00.0,30.5,23.0,07.5,0000.0,0000.91,0001.26,0000.74
2023-02-18 05:45:00,,0825.5,5.01,0.00,21.4,19.6,00.0,30.5,22.9,07.9,0000.0,0000.97,0001.33,0000.81
2023-02-18 05:46:00,,0825.5,5.00,0.00,21.3,19.5,00.0,30.5,22.8,07.8,0000.0,0001.03,0001.38,0000.87
2023-02-18 05:47:00,,0825.5,5.00,0.00,21.3,19.5,00.0,30.4,22.8,07.6,0000.0,0001.06,0002.05,0000.92
2023-02-18 05:48:00,,0825.5,4.98,0.00,21.3,20.4,00.0,30.3,23.1,07.2,0000.0,0001.10,0002.87,0000.96
2023-02-18 05:49:00,,0825.5,5.04,0.00,21.5,21.8,00.0,30.3,23.5,07.2,0000.0,0001.16,0003.01,0001.01
2023-02-18 05:50:00,,0825.5,5.02,0.00,21.6,22.5,00.0,30.3,23.7,06.6,0000.0,0001.18,0003.06,0001.03
2023-02-18 05:51:00,,0825.5,5.06,0.00,21.7,22.0,00.0,30.4,23.6,06.7,0000.0,0001.23,0003.15,0001.06
2023-02-18 05:52:00,,0825.4,5.00,0.00,21.7,21.4,00.0,30.5,23.5,06.8,0000.0,0001.31,0003.45,0001.09
2023-02-18 05:53:00,,0825.4,4.99,0.00,21.7,21.0,00.0,30.5,23.4,06.6,0000.0,0001.37,0004.30,0001.11
2023-02-18 05:54:00,,0825.3,5.02,0.00,21.6,20.6,00.0,30.5,23.3,06.5,0000.0,0001.37,0004.31,0001.12
2023-02-18 05:55:00,,0825.4,5.00,0.00,21.6,20.4,00.0,30.5,23.2,06.9,0000.0,0001.33,0004.21,0001.10
2023-02-18 05:56:00,,0825.3,4.99,0.00,21.6,20.2,00.0,30.5,23.2,07.2,0000.0,0001.29,0004.22,0001.05
2023-02-18 05:57:00,,0825.4,4.98,0.00,21.5,20.1,00.0,30.5,23.2,07.1,0000.0,0001.27,0004.29,0001.01
2023-02-18 05:58:00,,0825.3,5.02,0.00,21.5,20.0,00.0,30.5,23.1,07.0,0000.0,0001.25,0004.12,0000.97
2023-02-18 05:59:00,,0825.4,5.01,0.00,21.5,19.9,00.0,30.5,23.1,06.9,0000.0,0001.23,0003.01,0000.95
